Weather History for Milton, FL

Change the Weather History Date:

Sunday, October 7, 2012

  Actual Average (KNSE) Record (KNSE)
Temperature  
Mean Temperature 70 °F -  
Max Temperature 80 °F 79 °F 88 °F (1997)
Min Temperature 57 °F 60 °F 51 °F (2010)
Cooling Degree Days 4    
Growing Degree Days 20 (Base 50)    
Moisture  
Dew Point 59 °F    
Average Humidity 79    
Maximum Humidity 94    
Minimum Humidity 56    
Precipitation  
Precipitation 0.00 in - - ()
Sea Level Pressure  
Sea Level Pressure 30.00 in    
Wind  
Wind Speed 9 mph (North)    
Max Wind Speed 14 mph    
Max Gust Speed 17 mph    
Visibility 10 miles    
Events      
Averages and records for this station are not official NWS values.
T = Trace of Precipitation, MM = Missing Value Source: NWS Daily Summary

Daily Weather History Graph

Daily Weather History Graph

Search for Another Location

Airport:

Trip Planner

Search our weather history database for the weather conditions in past years. The results will help you decide how hot, cold, wet, or windy it might be!

Date:

Astronomy

Oct. 07, 2012 Rise Set
Actual Time 6:45 AM CDT 6:25 PM CDT
Civil Twilight 6:21 AM CDT 6:49 PM CDT
Nautical Twilight 5:53 AM CDT 7:17 PM CDT
Astronomical Twilight 5:25 AM CDT 7:45 PM CDT
Moon 11:51 PM CDT (10/7) 1:06 PM CDT (10/7)
Length of Visible Light 12h 27m
Length of Day
11h 39m
Waning Gibbous, 56% of the Moon is Illuminated
Oct 7
Waning Gibbous
Oct 8
Last Quarter
Oct 15
New
Oct 21
First Quarter
Oct 29
Full

Hourly Weather History & Observations

Time (CDT) Temp. Dew Point Humidity Pressure Visibility Wind Dir Wind Speed Gust Speed Precip Events Conditions
12:56 AM 68.0 °F 64.0 °F 87% 29.95 in 10.0 mi North 4.6 mph - N/A   Clear
1:56 AM 66.0 °F 63.0 °F 90% 29.95 in 10.0 mi NNW 5.8 mph - N/A   Clear
2:56 AM 64.0 °F 62.1 °F 93% 29.95 in 10.0 mi NNW 6.9 mph - N/A   Clear
3:11 AM 64.4 °F 60.8 °F 88% 29.99 in 10.0 mi NNW 6.9 mph - N/A   Scattered Clouds
3:21 AM 64.4 °F 62.6 °F 94% 30.00 in 10.0 mi North 8.1 mph - N/A   Mostly Cloudy
3:38 AM 64.4 °F 60.8 °F 88% 30.00 in 10.0 mi North 12.7 mph - N/A   Overcast
3:56 AM 66.0 °F 62.1 °F 87% 29.96 in 10.0 mi North 9.2 mph - N/A   Overcast
4:56 AM 63.0 °F 60.1 °F 90% 29.96 in 10.0 mi North 11.5 mph - N/A   Overcast
5:56 AM 63.0 °F 60.1 °F 90% 29.98 in 10.0 mi North 10.4 mph - N/A   Overcast
6:56 AM 62.1 °F 59.0 °F 90% 29.99 in 10.0 mi North 9.2 mph - N/A   Overcast
7:56 AM 61.0 °F 59.0 °F 93% 30.01 in 10.0 mi NNW 11.5 mph - N/A   Overcast
8:56 AM 62.1 °F 59.0 °F 90% 30.04 in 10.0 mi North 11.5 mph - N/A   Overcast
9:29 AM 62.6 °F 57.2 °F 82% 30.09 in 10.0 mi NNW 13.8 mph - N/A   Overcast
9:56 AM 63.0 °F 57.9 °F 84% 30.05 in 10.0 mi North 13.8 mph - N/A   Overcast
10:56 AM 64.0 °F 57.9 °F 80% 30.05 in 10.0 mi NNW 11.5 mph - N/A   Overcast
11:35 AM 66.2 °F 59.0 °F 78% 30.08 in 10.0 mi NNW 13.8 mph - N/A   Overcast
11:56 AM 69.1 °F 59.0 °F 70% 30.03 in 10.0 mi North 11.5 mph - N/A   Mostly Cloudy
12:03 PM 69.8 °F 59.0 °F 68% 30.07 in 10.0 mi Variable 6.9 mph 17.3 mph N/A   Partly Cloudy
12:56 PM 73.9 °F 60.1 °F 62% 30.00 in 10.0 mi NNW 10.4 mph - N/A   Clear
1:56 PM 78.1 °F 62.1 °F 58% 29.97 in 10.0 mi North 10.4 mph - N/A   Clear
2:56 PM 79.0 °F 62.1 °F 56% 29.95 in 10.0 mi NNW 12.7 mph - N/A   Clear
3:56 PM 79.0 °F 62.1 °F 56% 29.95 in 10.0 mi NNW 9.2 mph - N/A   Clear
4:56 PM 77.0 °F 61.0 °F 58% 29.95 in 10.0 mi North 12.7 mph - N/A   Clear
5:56 PM 72.0 °F 60.1 °F 66% 29.96 in 10.0 mi NNW 10.4 mph - N/A   Clear
6:56 PM 68.0 °F 57.9 °F 70% 29.98 in 10.0 mi North 12.7 mph - N/A   Clear
7:56 PM 64.0 °F 57.9 °F 80% 30.01 in 10.0 mi NNW 8.1 mph - N/A   Clear
8:56 PM 63.0 °F 55.9 °F 78% 30.04 in 10.0 mi North 9.2 mph - N/A   Clear
9:56 PM 62.1 °F 54.0 °F 75% 30.04 in 10.0 mi North 12.7 mph - N/A   Clear
10:56 PM 60.1 °F 53.1 °F 78% 30.04 in 10.0 mi North 8.1 mph - N/A   Clear
11:56 PM 57.9 °F 52.0 °F 81% 30.04 in 10.0 mi North 8.1 mph - N/A   Clear